Time,TemperatureF,DewpointF,PressureIn,WindDirection,WindDirectionDegrees,WindSpeedMPH,WindSpeedGustMPH,Humidity,HourlyPrecipIn,Conditions,Clouds,dailyrainin,SoftwareType,DateUTC
2013-01-17 00:04:00,43.1,36.1,30.26,West,263,0.0,1.0,76,0.00,,,0.00,WeatherCatV1.13B119,2013-01-17 08:04:00,
2013-01-17 00:09:00,43.1,36.1,30.26,West,259,1.0,2.0,76,0.00,,,0.00,WeatherCatV1.13B119,2013-01-17 08:09:00,
2013-01-17 00:14:00,43.1,36.1,30.26,WNW,287,0.0,1.0,76,0.00,,,0.00,WeatherCatV1.13B119,2013-01-17 08:14:00,
2013-01-17 00:19:00,43.0,36.0,30.26,West,270,0.0,2.0,76,0.00,,,0.00,WeatherCatV1.13B119,2013-01-17 08:19:00,
2013-01-17 00:24:00,43.0,36.0,30.26,WSW,254,0.0,1.0,76,0.00,,,0.00,WeatherCatV1.13B119,2013-01-17 08:24:00,
2013-01-17 00:29:00,43.1,35.7,30.27,West,266,0.0,0.0,75,0.00,,,0.00,WeatherCatV1.13B119,2013-01-17 08:29:00,
2013-01-17 00:32:00,43.2,36.2,30.27,West,275,0.0,0.0,76,0.00,,,0.00,WeatherCatV1.13B119,2013-01-17 08:32:00,
2013-01-17 00:37:00,43.2,36.2,30.27,WSW,250,0.0,0.0,76,0.00,,,0.00,WeatherCatV1.13B119,2013-01-17 08:37:00,
2013-01-17 00:42:00,43.1,36.1,30.27,West,259,0.0,0.0,76,0.00,,,0.00,WeatherCatV1.13B119,2013-01-17 08:42:00,
2013-01-17 00:47:00,43.0,36.0,30.26,West,273,0.0,0.0,76,0.00,,,0.00,WeatherCatV1.13B119,2013-01-17 08:47:00,
2013-01-17 00:52:00,43.1,36.1,30.27,West,263,0.0,0.0,76,0.00,,,0.00,WeatherCatV1.13B119,2013-01-17 08:52:00,
2013-01-17 00:57:00,43.1,36.1,30.27,West,270,0.0,0.0,76,0.00,,,0.00,WeatherCatV1.13B119,2013-01-17 08:57:00,
2013-01-17 01:02:00,43.1,36.4,30.27,West,264,0.0,1.0,77,0.00,,,0.00,WeatherCatV1.13B119,2013-01-17 09:02:00,
2013-01-17 01:07:00,43.1,36.4,30.27,West,271,0.0,1.0,77,0.00,,,0.00,WeatherCatV1.13B119,2013-01-17 09:07:00,
2013-01-17 01:12:00,43.0,36.3,30.27,West,259,0.0,0.0,77,0.00,,,0.00,WeatherCatV1.13B119,2013-01-17 09:12:00,
2013-01-17 01:17:00,43.0,36.6,30.27,NNW,341,0.0,1.0,78,0.00,,,0.00,WeatherCatV1.13B119,2013-01-17 09:17:00,
2013-01-17 01:22:00,43.0,36.6,30.27,NW,316,0.0,1.0,78,0.00,,,0.00,WeatherCatV1.13B119,2013-01-17 09:22:00,
2013-01-17 01:27:00,42.9,36.5,30.27,WSW,238,0.0,1.0,78,0.00,,,0.00,WeatherCatV1.13B119,2013-01-17 09:27:00,
2013-01-17 01:32:00,42.9,36.5,30.27,SW,228,1.0,1.0,78,0.00,,,0.00,WeatherCatV1.13B119,2013-01-17 09:32:00,
2013-01-17 01:37:00,42.9,36.8,30.26,West,266,1.0,1.0,79,0.00,,,0.00,WeatherCatV1.13B119,2013-01-17 09:37:00,
2013-01-17 01:42:00,43.1,37.0,30.27,WSW,252,1.0,2.0,79,0.00,,,0.00,WeatherCatV1.13B119,2013-01-17 09:42:00,
2013-01-17 01:47:00,43.1,37.0,30.27,SSE,156,0.0,1.0,79,0.00,,,0.00,WeatherCatV1.13B119,2013-01-17 09:47:00,
2013-01-17 01:52:00,43.0,36.9,30.27,SSW,194,0.0,0.0,79,0.00,,,0.00,WeatherCatV1.13B119,2013-01-17 09:52:00,
2013-01-17 01:57:00,43.0,36.9,30.27,WSW,255,0.0,1.0,79,0.00,,,0.00,WeatherCatV1.13B119,2013-01-17 09:57:00,
2013-01-17 02:02:00,43.0,36.6,30.26,WSW,244,0.0,0.0,78,0.00,,,0.00,WeatherCatV1.13B119,2013-01-17 10:02:00,
2013-01-17 02:07:00,42.9,36.5,30.26,ENE,68,0.0,0.0,78,0.00,,,0.00,WeatherCatV1.13B119,2013-01-17 10:07:00,
2013-01-17 02:12:00,43.0,36.6,30.26,NNW,328,0.0,0.0,78,0.00,,,0.00,WeatherCatV1.13B119,2013-01-17 10:12:00,
2013-01-17 02:17:00,42.8,36.4,30.26,WSW,253,0.0,1.0,78,0.00,,,0.00,WeatherCatV1.13B119,2013-01-17 10:17:00,
2013-01-17 02:22:00,42.8,36.7,30.26,West,260,1.0,2.0,79,0.00,,,0.00,WeatherCatV1.13B119,2013-01-17 10:22:00,
2013-01-17 02:27:00,42.9,37.2,30.26,WSW,252,0.0,1.0,80,0.00,,,0.00,WeatherCatV1.13B119,2013-01-17 10:27:00,
2013-01-17 02:32:00,42.9,37.5,30.26,WSW,256,0.0,1.0,81,0.00,,,0.00,WeatherCatV1.13B119,2013-01-17 10:32:00,
2013-01-17 02:37:00,42.7,37.3,30.26,NE,37,1.0,1.0,81,0.00,,,0.00,WeatherCatV1.13B119,2013-01-17 10:37:00,
2013-01-17 02:42:00,42.6,37.2,30.26,NW,323,0.0,0.0,81,0.00,,,0.00,WeatherCatV1.13B119,2013-01-17 10:42:00,
2013-01-17 02:47:00,42.6,37.5,30.26,WSW,246,1.0,3.0,82,0.00,,,0.00,WeatherCatV1.13B119,2013-01-17 10:47:00,
2013-01-17 02:52:00,42.5,37.4,30.26,SW,231,0.0,0.0,82,0.00,,,0.00,WeatherCatV1.13B119,2013-01-17 10:52:00,
2013-01-17 02:57:00,42.4,37.6,30.26,WSW,240,0.0,1.0,83,0.00,,,0.00,WeatherCatV1.13B119,2013-01-17 10:57:00,
2013-01-17 03:02:00,42.5,37.7,30.25,West,263,0.0,0.0,83,0.00,,,0.00,WeatherCatV1.13B119,2013-01-17 11:02:00,
2013-01-17 03:07:00,42.5,37.7,30.25,West,260,0.0,2.0,83,0.00,,,0.00,WeatherCatV1.13B119,2013-01-17 11:07:00,
2013-01-17 03:12:00,42.4,37.6,30.25,WSW,248,0.0,1.0,83,0.00,,,0.00,WeatherCatV1.13B119,2013-01-17 11:12:00,
2013-01-17 03:17:00,42.3,37.5,30.25,WNW,283,0.0,1.0,83,0.00,,,0.00,WeatherCatV1.13B119,2013-01-17 11:17:00,
2013-01-17 03:22:00,42.2,37.4,30.25,WNW,290,0.0,1.0,83,0.00,,,0.00,WeatherCatV1.13B119,2013-01-17 11:22:00,
2013-01-17 03:27:00,41.9,37.1,30.25,SW,229,0.0,1.0,83,0.00,,,0.00,WeatherCatV1.13B119,2013-01-17 11:27:00,
2013-01-17 03:32:00,41.8,37.3,30.25,NW,319,0.0,0.0,84,0.00,,,0.00,WeatherCatV1.13B119,2013-01-17 11:32:00,
2013-01-17 03:37:00,41.6,37.1,30.25,West,263,0.0,0.0,84,0.00,,,0.00,WeatherCatV1.13B119,2013-01-17 11:37:00,
2013-01-17 03:42:00,41.5,36.7,30.25,SW,228,0.0,0.0,83,0.00,,,0.00,WeatherCatV1.13B119,2013-01-17 11:42:00,
2013-01-17 03:47:00,41.4,36.6,30.25,SW,229,0.0,0.0,83,0.00,,,0.00,WeatherCatV1.13B119,2013-01-17 11:47:00,
2013-01-17 03:52:00,41.3,36.8,30.25,WSW,247,0.0,0.0,84,0.00,,,0.00,WeatherCatV1.13B119,2013-01-17 11:52:00,
2013-01-17 03:57:00,41.2,36.7,30.25,West,263,0.0,0.0,84,0.00,,,0.00,WeatherCatV1.13B119,2013-01-17 11:57:00,
2013-01-17 04:02:00,41.2,36.7,30.25,WSW,257,0.0,0.0,84,0.00,,,0.00,WeatherCatV1.13B119,2013-01-17 12:02:00,
2013-01-17 04:07:00,41.2,36.7,30.25,ESE,113,0.0,0.0,84,0.00,,,0.00,WeatherCatV1.13B119,2013-01-17 12:07:00,
2013-01-17 04:12:00,41.1,36.6,30.25,WSW,244,0.0,0.0,84,0.00,,,0.00,WeatherCatV1.13B119,2013-01-17 12:12:00,
2013-01-17 04:17:00,40.9,36.4,30.24,WSW,238,0.0,0.0,84,0.00,,,0.00,WeatherCatV1.13B119,2013-01-17 12:17:00,
2013-01-17 04:22:00,40.8,36.6,30.24,NW,312,0.0,0.0,85,0.00,,,0.00,WeatherCatV1.13B119,2013-01-17 12:22:00,
2013-01-17 04:27:00,40.7,36.5,30.24,WSW,252,0.0,0.0,85,0.00,,,0.00,WeatherCatV1.13B119,2013-01-17 12:27:00,
2013-01-17 04:32:00,40.7,36.5,30.24,North,357,0.0,0.0,85,0.00,,,0.00,WeatherCatV1.13B119,2013-01-17 12:32:00,
2013-01-17 04:37:00,40.8,36.9,30.24,WSW,256,0.0,0.0,86,0.00,,,0.00,WeatherCatV1.13B119,2013-01-17 12:37:00,
2013-01-17 04:42:00,40.8,36.9,30.24,North,353,0.0,1.0,86,0.00,,,0.00,WeatherCatV1.13B119,2013-01-17 12:42:00,
2013-01-17 04:47:00,40.7,36.8,30.24,NW,316,0.0,1.0,86,0.00,,,0.00,WeatherCatV1.13B119,2013-01-17 12:47:00,
2013-01-17 04:52:00,40.7,36.8,30.24,SSW,205,0.0,0.0,86,0.00,,,0.00,WeatherCatV1.13B119,2013-01-17 12:52:00,
2013-01-17 04:57:00,40.7,36.8,30.23,West,268,0.0,2.0,86,0.00,,,0.00,WeatherCatV1.13B119,2013-01-17 12:57:00,
2013-01-17 05:02:00,40.8,36.9,30.23,WNW,300,0.0,0.0,86,0.00,,,0.00,WeatherCatV1.13B119,2013-01-17 13:02:00,
2013-01-17 05:07:00,40.7,36.8,30.24,West,278,2.0,2.0,86,0.00,,,0.00,WeatherCatV1.13B119,2013-01-17 13:07:00,
2013-01-17 05:12:00,40.6,36.7,30.23,WSW,243,0.0,0.0,86,0.00,,,0.00,WeatherCatV1.13B119,2013-01-17 13:12:00,
2013-01-17 05:17:00,40.5,36.6,30.23,WSW,253,0.0,0.0,86,0.00,,,0.00,WeatherCatV1.13B119,2013-01-17 13:17:00,
2013-01-17 05:22:00,40.5,36.6,30.23,West,271,1.0,2.0,86,0.00,,,0.00,WeatherCatV1.13B119,2013-01-17 13:22:00,
2013-01-17 05:27:00,40.4,36.5,30.23,West,276,0.0,1.0,86,0.00,,,0.00,WeatherCatV1.13B119,2013-01-17 13:27:00,
2013-01-17 05:32:00,40.4,36.8,30.23,West,262,0.0,0.0,87,0.00,,,0.00,WeatherCatV1.13B119,2013-01-17 13:32:00,
2013-01-17 05:37:00,40.5,36.9,30.23,WNW,283,0.0,1.0,87,0.00,,,0.00,WeatherCatV1.13B119,2013-01-17 13:37:00,
2013-01-17 05:42:00,40.5,36.9,30.23,WSW,245,0.0,3.0,87,0.00,,,0.00,WeatherCatV1.13B119,2013-01-17 13:42:00,
2013-01-17 05:47:00,40.5,37.2,30.23,West,262,0.0,1.0,88,0.00,,,0.00,WeatherCatV1.13B119,2013-01-17 13:47:00,
2013-01-17 05:52:00,40.5,37.2,30.23,WNW,290,0.0,1.0,88,0.00,,,0.00,WeatherCatV1.13B119,2013-01-17 13:52:00,
2013-01-17 05:57:00,40.6,37.3,30.23,WNW,299,0.0,1.0,88,0.00,,,0.00,WeatherCatV1.13B119,2013-01-17 13:57:00,
2013-01-17 06:02:00,40.6,37.3,30.23,WSW,253,0.0,1.0,88,0.00,,,0.00,WeatherCatV1.13B119,2013-01-17 14:02:00,
2013-01-17 06:07:00,40.5,37.2,30.23,West,281,0.0,0.0,88,0.00,,,0.00,WeatherCatV1.13B119,2013-01-17 14:07:00,
2013-01-17 06:12:00,40.5,37.2,30.23,WSW,248,0.0,0.0,88,0.00,,,0.00,WeatherCatV1.13B119,2013-01-17 14:12:00,
2013-01-17 06:17:00,40.4,37.1,30.23,WNW,300,0.0,0.0,88,0.00,,,0.00,WeatherCatV1.13B119,2013-01-17 14:17:00,
2013-01-17 06:22:00,40.4,37.1,30.23,West,273,0.0,1.0,88,0.00,,,0.00,WeatherCatV1.13B119,2013-01-17 14:22:00,
2013-01-17 06:27:00,40.4,37.1,30.23,West,267,0.0,1.0,88,0.00,,,0.00,WeatherCatV1.13B119,2013-01-17 14:27:00,
2013-01-17 06:32:00,40.3,37.0,30.23,NW,311,0.0,0.0,88,0.00,,,0.00,WeatherCatV1.13B119,2013-01-17 14:32:00,
2013-01-17 06:37:00,40.2,36.9,30.23,WNW,288,0.0,1.0,88,0.00,,,0.00,WeatherCatV1.13B119,2013-01-17 14:37:00,
2013-01-17 06:42:00,40.2,36.9,30.23,SW,225,0.0,0.0,88,0.00,,,0.00,WeatherCatV1.13B119,2013-01-17 14:42:00,
2013-01-17 06:47:00,40.1,36.8,30.23,NE,37,0.0,0.0,88,0.00,,,0.00,WeatherCatV1.13B119,2013-01-17 14:47:00,
2013-01-17 06:52:00,39.9,36.6,30.23,WSW,256,0.0,0.0,88,0.00,,,0.00,WeatherCatV1.13B119,2013-01-17 14:52:00,
2013-01-17 06:57:00,39.7,36.4,30.23,WSW,242,0.0,0.0,88,0.00,,,0.00,WeatherCatV1.13B119,2013-01-17 14:57:00,
2013-01-17 07:02:00,39.6,36.3,30.23,WSW,240,0.0,0.0,88,0.00,,,0.00,WeatherCatV1.13B119,2013-01-17 15:02:00,
2013-01-17 07:07:00,39.6,36.3,30.23,West,259,1.0,2.0,88,0.00,,,0.00,WeatherCatV1.13B119,2013-01-17 15:07:00,
2013-01-17 07:12:00,39.6,36.3,30.23,WNW,290,0.0,0.0,88,0.00,,,0.00,WeatherCatV1.13B119,2013-01-17 15:12:00,
2013-01-17 07:17:00,39.7,36.2,30.23,SW,233,0.0,0.0,87,0.00,,,0.00,WeatherCatV1.13B119,2013-01-17 15:17:00,
2013-01-17 07:22:00,39.7,36.2,30.23,WSW,252,0.0,0.0,87,0.00,,,0.00,WeatherCatV1.13B119,2013-01-17 15:22:00,
2013-01-17 07:27:00,39.7,36.2,30.24,West,266,0.0,0.0,87,0.00,,,0.00,WeatherCatV1.13B119,2013-01-17 15:27:00,
2013-01-17 07:32:00,39.7,36.2,30.24,SSW,212,0.0,0.0,87,0.00,,,0.00,WeatherCatV1.13B119,2013-01-17 15:32:00,
2013-01-17 07:37:00,39.8,36.3,30.24,SW,228,0.0,0.0,87,0.00,,,0.00,WeatherCatV1.13B119,2013-01-17 15:37:00,
2013-01-17 07:42:00,39.8,36.3,30.24,SW,228,0.0,0.0,87,0.00,,,0.00,WeatherCatV1.13B119,2013-01-17 15:42:00,
2013-01-17 07:47:00,39.8,36.3,30.24,SW,229,0.0,0.0,87,0.00,,,0.00,WeatherCatV1.13B119,2013-01-17 15:47:00,
2013-01-17 07:52:00,39.9,36.3,30.24,North,4,0.0,0.0,87,0.00,,,0.00,WeatherCatV1.13B119,2013-01-17 15:52:00,
2013-01-17 07:57:00,39.9,36.3,30.24,NNE,30,0.0,1.0,87,0.00,,,0.00,WeatherCatV1.13B119,2013-01-17 15:57:00,
2013-01-17 08:02:00,40.0,36.7,30.25,SSW,207,1.0,1.0,88,0.00,,,0.00,WeatherCatV1.13B119,2013-01-17 16:02:00,
2013-01-17 08:07:00,40.0,36.7,30.25,ENE,68,0.0,0.0,88,0.00,,,0.00,WeatherCatV1.13B119,2013-01-17 16:07:00,
2013-01-17 08:12:00,40.2,36.6,30.25,WNW,299,0.0,0.0,87,0.00,,,0.00,WeatherCatV1.13B119,2013-01-17 16:12:00,
2013-01-17 08:20:00,40.8,37.2,30.25,NNE,20,0.0,1.0,87,0.00,,,0.00,WeatherCatV1.13B119,2013-01-17 16:20:00,
2013-01-17 08:25:00,41.5,37.6,30.25,WSW,246,0.0,0.0,86,0.00,,,0.00,WeatherCatV1.13B119,2013-01-17 16:25:00,
2013-01-17 08:30:00,42.0,37.8,30.25,East,79,0.0,0.0,85,0.00,,,0.00,WeatherCatV1.13B119,2013-01-17 16:30:00,
2013-01-17 08:35:00,42.7,38.5,30.25,WSW,250,0.0,0.0,85,0.00,,,0.00,WeatherCatV1.13B119,2013-01-17 16:35:00,
2013-01-17 08:40:00,43.2,38.7,30.25,SW,222,0.0,1.0,84,0.00,,,0.00,WeatherCatV1.13B119,2013-01-17 16:40:00,
2013-01-17 08:45:00,43.6,38.8,30.26,NNE,25,1.0,3.0,83,0.00,,,0.00,WeatherCatV1.13B119,2013-01-17 16:45:00,
2013-01-17 08:50:00,44.1,39.3,30.26,NNE,20,0.0,2.0,83,0.00,,,0.00,WeatherCatV1.13B119,2013-01-17 16:50:00,
2013-01-17 08:59:00,44.8,39.6,30.26,West,276,0.0,1.0,82,0.00,,,0.00,WeatherCatV1.11B39,2013-01-17 16:59:00,
2013-01-17 09:04:00,45.0,39.8,30.26,NE,34,1.0,4.0,82,0.00,,,0.00,WeatherCatV1.11B39,2013-01-17 17:04:00,
2013-01-17 09:09:00,45.4,40.2,30.26,WSW,249,0.0,0.0,82,0.00,,,0.00,WeatherCatV1.11B39,2013-01-17 17:09:00,
2013-01-17 09:23:00,45.6,39.8,30.27,NNE,27,0.0,1.0,80,0.00,,,0.00,WeatherCatV1.13B119,2013-01-17 17:23:00,
2013-01-17 09:28:00,45.9,40.1,30.27,NNE,16,0.0,1.0,80,0.00,,,0.00,WeatherCatV1.13B119,2013-01-17 17:28:00,
2013-01-17 09:33:00,46.7,40.9,30.27,NNE,30,1.0,2.0,80,0.00,,,0.00,WeatherCatV1.13B119,2013-01-17 17:33:00,
2013-01-17 09:38:00,46.8,40.6,30.26,East,89,1.0,1.0,79,0.00,,,0.00,WeatherCatV1.13B119,2013-01-17 17:38:00,
2013-01-17 09:43:00,47.0,40.5,30.26,NE,41,0.0,2.0,78,0.00,,,0.00,WeatherCatV1.13B119,2013-01-17 17:43:00,
2013-01-17 09:48:00,47.4,40.9,30.26,WSW,249,0.0,1.0,78,0.00,,,0.00,WeatherCatV1.13B119,2013-01-17 17:48:00,
2013-01-17 09:53:00,47.3,40.5,30.26,NE,37,1.0,3.0,77,0.00,,,0.00,WeatherCatV1.13B119,2013-01-17 17:53:00,
2013-01-17 09:58:00,47.1,40.6,30.26,NNE,25,0.0,1.0,78,0.00,,,0.00,WeatherCatV1.13B119,2013-01-17 17:58:00,
2013-01-17 10:03:00,47.0,40.5,30.26,NNE,21,2.0,3.0,78,0.00,,,0.00,WeatherCatV1.13B119,2013-01-17 18:03:00,
2013-01-17 10:08:00,47.0,40.8,30.26,NNE,32,2.0,2.0,79,0.00,,,0.00,WeatherCatV1.13B119,2013-01-17 18:08:00,
2013-01-17 10:13:00,47.8,41.6,30.26,SW,226,0.0,1.0,79,0.00,,,0.00,WeatherCatV1.13B119,2013-01-17 18:13:00,
2013-01-17 10:18:00,48.6,42.1,30.26,NE,34,0.0,1.0,78,0.00,,,0.00,WeatherCatV1.13B119,2013-01-17 18:18:00,
2013-01-17 10:23:00,49.1,42.2,30.26,North,4,0.0,2.0,77,0.00,,,0.00,WeatherCatV1.13B119,2013-01-17 18:23:00,
2013-01-17 10:28:00,49.4,42.5,30.26,NNE,27,0.0,3.0,77,0.00,,,0.00,WeatherCatV1.13B119,2013-01-17 18:28:00,
2013-01-17 10:33:00,49.7,42.4,30.25,NE,49,1.0,2.0,76,0.00,,,0.00,WeatherCatV1.13B119,2013-01-17 18:33:00,
2013-01-17 10:38:00,50.1,42.5,30.25,WSW,243,0.0,2.0,75,0.00,,,0.00,WeatherCatV1.13B119,2013-01-17 18:38:00,
2013-01-17 10:43:00,50.5,42.5,30.25,NW,317,1.0,1.0,74,0.00,,,0.00,WeatherCatV1.13B119,2013-01-17 18:43:00,
2013-01-17 10:48:00,50.5,42.2,30.25,NE,49,1.0,1.0,73,0.00,,,0.00,WeatherCatV1.13B119,2013-01-17 18:48:00,
2013-01-17 10:53:00,50.7,42.4,30.25,North,1,0.0,1.0,73,0.00,,,0.00,WeatherCatV1.13B119,2013-01-17 18:53:00,
2013-01-17 10:58:00,51.3,42.9,30.25,NE,49,0.0,2.0,73,0.00,,,0.00,WeatherCatV1.13B119,2013-01-17 18:58:00,
2013-01-17 11:03:00,52.0,43.6,30.24,West,277,0.0,2.0,73,0.00,,,0.00,WeatherCatV1.13B119,2013-01-17 19:03:00,
2013-01-17 11:08:00,52.4,43.6,30.24,WNW,287,2.0,2.0,72,0.00,,,0.00,WeatherCatV1.13B119,2013-01-17 19:08:00,
2013-01-17 11:13:00,53.1,43.9,30.24,NE,47,1.0,1.0,71,0.00,,,0.00,WeatherCatV1.13B119,2013-01-17 19:13:00,
2013-01-17 11:18:00,53.5,43.6,30.24,NE,34,1.0,2.0,69,0.00,,,0.00,WeatherCatV1.13B119,2013-01-17 19:18:00,
2013-01-17 11:23:00,53.3,43.0,30.24,NE,37,0.0,2.0,68,0.00,,,0.00,WeatherCatV1.13B119,2013-01-17 19:23:00,
2013-01-17 11:28:00,52.9,43.8,30.23,SW,214,1.0,1.0,71,0.00,,,0.00,WeatherCatV1.13B119,2013-01-17 19:28:00,
2013-01-17 11:33:00,53.8,44.2,30.23,SE,136,0.0,1.0,70,0.00,,,0.00,WeatherCatV1.13B119,2013-01-17 19:33:00,
2013-01-17 11:38:00,54.0,43.3,30.23,NE,34,1.0,2.0,67,0.00,,,0.00,WeatherCatV1.13B119,2013-01-17 19:38:00,
2013-01-17 11:43:00,53.5,43.6,30.23,West,273,0.0,3.0,69,0.00,,,0.00,WeatherCatV1.13B119,2013-01-17 19:43:00,
2013-01-17 11:48:00,53.8,42.7,30.22,North,356,1.0,2.0,66,0.00,,,0.00,WeatherCatV1.13B119,2013-01-17 19:48:00,
2013-01-17 11:53:00,53.5,42.8,30.22,NNE,13,0.0,2.0,67,0.00,,,0.00,WeatherCatV1.13B119,2013-01-17 19:53:00,
2013-01-17 11:58:00,54.0,43.3,30.22,SW,218,0.0,2.0,67,0.00,,,0.00,WeatherCatV1.13B119,2013-01-17 19:58:00,
2013-01-17 12:03:00,54.3,43.6,30.22,NE,43,1.0,1.0,67,0.00,,,0.00,WeatherCatV1.13B119,2013-01-17 20:03:00,
2013-01-17 12:09:00,54.5,43.4,30.21,NE,50,0.0,1.0,66,0.00,,,0.00,WeatherCatV1.13B119,2013-01-17 20:09:00,
2013-01-17 12:13:00,54.9,43.4,30.21,South,169,1.0,3.0,65,0.00,,,0.00,WeatherCatV1.13B119,2013-01-17 20:13:00,
2013-01-17 12:19:00,54.5,43.4,30.21,NE,48,1.0,3.0,66,0.00,,,0.00,WeatherCatV1.13B119,2013-01-17 20:19:00,
2013-01-17 12:24:00,55.1,44.7,30.21,WSW,250,0.0,2.0,68,0.00,,,0.00,WeatherCatV1.13B119,2013-01-17 20:24:00,
2013-01-17 12:29:00,56.1,44.5,30.21,NNE,25,2.0,2.0,65,0.00,,,0.00,WeatherCatV1.13B119,2013-01-17 20:29:00,
2013-01-17 12:35:00,55.5,43.5,30.20,NE,50,0.0,3.0,64,0.00,,,0.00,WeatherCatV1.13B119,2013-01-17 20:35:00,
2013-01-17 12:40:00,55.8,43.8,30.20,ENE,65,0.0,1.0,64,0.00,,,0.00,WeatherCatV1.13B119,2013-01-17 20:40:00,
2013-01-17 12:45:00,56.4,44.4,30.20,NNE,32,0.0,2.0,64,0.00,,,0.00,WeatherCatV1.13B119,2013-01-17 20:45:00,
2013-01-17 12:50:00,57.1,43.8,30.20,NNW,331,0.0,1.0,61,0.00,,,0.00,WeatherCatV1.13B119,2013-01-17 20:50:00,
2013-01-17 12:55:00,57.2,43.9,30.19,WSW,238,1.0,1.0,61,0.00,,,0.00,WeatherCatV1.13B119,2013-01-17 20:55:00,
2013-01-17 13:00:00,57.8,44.0,30.19,NE,47,0.0,0.0,60,0.00,,,0.00,WeatherCatV1.13B119,2013-01-17 21:00:00,
2013-01-17 13:05:00,57.7,43.0,30.19,WSW,253,0.0,0.0,58,0.00,,,0.00,WeatherCatV1.13B119,2013-01-17 21:05:00,
2013-01-17 13:10:00,58.3,42.7,30.19,WSW,254,2.0,3.0,56,0.00,,,0.00,WeatherCatV1.13B119,2013-01-17 21:10:00,
2013-01-17 13:15:00,58.1,42.9,30.19,WSW,243,0.0,1.0,57,0.00,,,0.00,WeatherCatV1.13B119,2013-01-17 21:15:00,
2013-01-17 13:20:00,58.6,43.4,30.18,WSW,243,0.0,0.0,57,0.00,,,0.00,WeatherCatV1.13B119,2013-01-17 21:20:00,
2013-01-17 13:25:00,58.4,41.3,30.18,NW,310,0.0,1.0,53,0.00,,,0.00,WeatherCatV1.13B119,2013-01-17 21:25:00,
2013-01-17 13:30:00,58.6,42.0,30.18,NE,37,0.0,0.0,54,0.00,,,0.00,WeatherCatV1.13B119,2013-01-17 21:30:00,
2013-01-17 13:35:00,58.7,41.6,30.18,North,8,0.0,1.0,53,0.00,,,0.00,WeatherCatV1.13B119,2013-01-17 21:35:00,
2013-01-17 13:40:00,58.7,41.6,30.18,NNE,27,0.0,1.0,53,0.00,,,0.00,WeatherCatV1.13B119,2013-01-17 21:40:00,
2013-01-17 13:45:00,58.6,41.0,30.18,South,179,0.0,2.0,52,0.00,,,0.00,WeatherCatV1.13B119,2013-01-17 21:45:00,
2013-01-17 13:50:00,59.4,42.3,30.17,SW,226,1.0,1.0,53,0.00,,,0.00,WeatherCatV1.13B119,2013-01-17 21:50:00,
2013-01-17 13:55:00,59.5,40.8,30.17,West,269,1.0,3.0,50,0.00,,,0.00,WeatherCatV1.13B119,2013-01-17 21:55:00,
2013-01-17 14:00:00,59.3,41.2,30.17,NNE,28,1.0,3.0,51,0.00,,,0.00,WeatherCatV1.13B119,2013-01-17 22:00:00,
2013-01-17 14:05:00,59.2,41.6,30.17,North,8,1.0,2.0,52,0.00,,,0.00,WeatherCatV1.13B119,2013-01-17 22:05:00,
2013-01-17 14:10:00,59.7,41.5,30.17,ENE,57,1.0,2.0,51,0.00,,,0.00,WeatherCatV1.13B119,2013-01-17 22:10:00,
2013-01-17 14:15:00,59.8,41.6,30.17,NW,319,0.0,2.0,51,0.00,,,0.00,WeatherCatV1.13B119,2013-01-17 22:15:00,
2013-01-17 14:20:00,60.0,41.3,30.17,West,263,1.0,1.0,50,0.00,,,0.00,WeatherCatV1.13B119,2013-01-17 22:20:00,
2013-01-17 14:25:00,59.9,41.2,30.17,North,4,0.0,2.0,50,0.00,,,0.00,WeatherCatV1.13B119,2013-01-17 22:25:00,
2013-01-17 14:30:00,60.1,42.4,30.16,WSW,258,0.0,1.0,52,0.00,,,0.00,WeatherCatV1.13B119,2013-01-17 22:30:00,
2013-01-17 14:35:00,60.6,41.3,30.16,NNE,27,0.0,2.0,49,0.00,,,0.00,WeatherCatV1.13B119,2013-01-17 22:35:00,
2013-01-17 14:40:00,60.3,42.1,30.16,West,267,0.0,1.0,51,0.00,,,0.00,WeatherCatV1.13B119,2013-01-17 22:40:00,
2013-01-17 14:45:00,60.0,41.3,30.16,WNW,294,1.0,1.0,50,0.00,,,0.00,WeatherCatV1.13B119,2013-01-17 22:45:00,
2013-01-17 14:50:00,59.6,42.0,30.16,NW,317,0.0,0.0,52,0.00,,,0.00,WeatherCatV1.13B119,2013-01-17 22:50:00,
2013-01-17 14:55:00,60.0,42.3,30.16,North,8,0.0,0.0,52,0.00,,,0.00,WeatherCatV1.13B119,2013-01-17 22:55:00,
2013-01-17 15:00:00,60.1,41.9,30.16,NE,35,0.0,1.0,51,0.00,,,0.00,WeatherCatV1.13B119,2013-01-17 23:00:00,
2013-01-17 15:05:00,59.8,42.1,30.16,NE,36,0.0,1.0,52,0.00,,,0.00,WeatherCatV1.13B119,2013-01-17 23:05:00,
2013-01-17 15:10:00,60.5,41.8,30.16,NE,44,1.0,1.0,50,0.00,,,0.00,WeatherCatV1.13B119,2013-01-17 23:10:00,
2013-01-17 15:15:00,60.3,41.1,30.16,NNE,24,0.0,1.0,49,0.00,,,0.00,WeatherCatV1.13B119,2013-01-17 23:15:00,
2013-01-17 15:20:00,59.8,40.6,30.16,NNE,31,0.0,0.0,49,0.00,,,0.00,WeatherCatV1.13B119,2013-01-17 23:20:00,
2013-01-17 15:25:00,59.7,41.0,30.16,NNE,32,0.0,0.0,50,0.00,,,0.00,WeatherCatV1.13B119,2013-01-17 23:25:00,
2013-01-17 15:30:00,60.2,41.5,30.16,NNW,338,0.0,0.0,50,0.00,,,0.00,WeatherCatV1.13B119,2013-01-17 23:30:00,
2013-01-17 15:35:00,60.9,41.1,30.16,NNW,340,0.0,0.0,48,0.00,,,0.00,WeatherCatV1.13B119,2013-01-17 23:35:00,
2013-01-17 15:40:00,60.6,40.8,30.16,NNE,21,0.0,0.0,48,0.00,,,0.00,WeatherCatV1.13B119,2013-01-17 23:40:00,
2013-01-17 15:45:00,60.9,41.6,30.16,ENE,67,0.0,0.0,49,0.00,,,0.00,WeatherCatV1.13B119,2013-01-17 23:45:00,
2013-01-17 15:50:00,61.0,41.2,30.16,WNW,285,0.0,2.0,48,0.00,,,0.00,WeatherCatV1.13B119,2013-01-17 23:50:00,
2013-01-17 15:55:00,61.4,41.0,30.16,North,6,0.0,1.0,47,0.00,,,0.00,WeatherCatV1.13B119,2013-01-17 23:55:00,
2013-01-17 16:00:00,61.7,41.3,30.16,NW,305,0.0,0.0,47,0.00,,,0.00,WeatherCatV1.13B119,2013-01-18 00:00:00,
2013-01-17 16:05:00,62.0,41.0,30.16,North,353,0.0,0.0,46,0.00,,,0.00,WeatherCatV1.13B119,2013-01-18 00:05:00,
2013-01-17 16:10:00,62.1,41.1,30.16,WSW,246,0.0,0.0,46,0.00,,,0.00,WeatherCatV1.13B119,2013-01-18 00:10:00,
2013-01-17 16:15:00,61.9,40.9,30.16,SW,233,0.0,0.0,46,0.00,,,0.00,WeatherCatV1.13B119,2013-01-18 00:15:00,
2013-01-17 16:20:00,62.2,40.0,30.16,NNE,18,1.0,1.0,44,0.00,,,0.00,WeatherCatV1.13B119,2013-01-18 00:20:00,
2013-01-17 16:25:00,61.4,40.4,30.16,WSW,257,0.0,1.0,46,0.00,,,0.00,WeatherCatV1.13B119,2013-01-18 00:25:00,
2013-01-17 16:30:00,60.9,40.0,30.16,West,273,0.0,1.0,46,0.00,,,0.00,WeatherCatV1.13B119,2013-01-18 00:30:00,
2013-01-17 16:35:00,60.0,40.3,30.16,SW,236,0.0,1.0,48,0.00,,,0.00,WeatherCatV1.13B119,2013-01-18 00:35:00,
2013-01-17 16:40:00,59.5,40.8,30.16,West,262,0.0,1.0,50,0.00,,,0.00,WeatherCatV1.13B119,2013-01-18 00:40:00,
2013-01-17 16:45:00,59.4,40.2,30.16,NW,305,0.0,0.0,49,0.00,,,0.00,WeatherCatV1.13B119,2013-01-18 00:45:00,
2013-01-17 16:50:00,58.7,39.6,30.16,WNW,298,0.0,0.0,49,0.00,,,0.00,WeatherCatV1.13B119,2013-01-18 00:50:00,
2013-01-17 16:55:00,58.3,39.7,30.16,West,281,0.0,0.0,50,0.00,,,0.00,WeatherCatV1.13B119,2013-01-18 00:55:00,
2013-01-17 17:00:00,57.3,39.3,30.16,West,264,0.0,0.0,51,0.00,,,0.00,WeatherCatV1.13B119,2013-01-18 01:00:00,
2013-01-17 17:05:00,56.8,38.9,30.16,WSW,249,0.0,0.0,51,0.00,,,0.00,WeatherCatV1.13B119,2013-01-18 01:05:00,
2013-01-17 17:10:00,56.4,38.5,30.16,NNW,343,0.0,1.0,51,0.00,,,0.00,WeatherCatV1.13B119,2013-01-18 01:10:00,
2013-01-17 17:15:00,55.5,38.6,30.16,WNW,284,0.0,0.0,53,0.00,,,0.00,WeatherCatV1.13B119,2013-01-18 01:15:00,
2013-01-17 17:22:00,54.1,38.3,30.16,WNW,290,0.0,0.0,55,0.00,,,0.00,WeatherCatV1.13B119,2013-01-18 01:22:00,
2013-01-17 17:27:00,53.4,38.1,30.16,SSW,207,0.0,0.0,56,0.00,,,0.00,WeatherCatV1.13B119,2013-01-18 01:27:00,
2013-01-17 17:32:00,52.9,38.1,30.17,SSW,207,0.0,0.0,57,0.00,,,0.00,WeatherCatV1.13B119,2013-01-18 01:32:00,
2013-01-17 17:37:00,52.5,38.2,30.17,SW,221,0.0,0.0,58,0.00,,,0.00,WeatherCatV1.13B119,2013-01-18 01:37:00,
2013-01-17 17:42:00,52.3,37.5,30.17,SW,221,0.0,0.0,57,0.00,,,0.00,WeatherCatV1.13B119,2013-01-18 01:42:00,
2013-01-17 17:47:00,52.1,37.3,30.17,WSW,253,0.0,1.0,57,0.00,,,0.00,WeatherCatV1.13B119,2013-01-18 01:47:00,
2013-01-17 17:52:00,52.3,37.1,30.17,SW,236,1.0,3.0,56,0.00,,,0.00,WeatherCatV1.13B119,2013-01-18 01:52:00,
2013-01-17 17:57:00,52.2,37.0,30.17,West,262,1.0,2.0,56,0.00,,,0.00,WeatherCatV1.13B119,2013-01-18 01:57:00,
2013-01-17 18:02:00,52.0,37.2,30.17,NW,307,0.0,1.0,57,0.00,,,0.00,WeatherCatV1.13B119,2013-01-18 02:02:00,
2013-01-17 18:07:00,51.8,37.1,30.17,SW,228,1.0,2.0,57,0.00,,,0.00,WeatherCatV1.13B119,2013-01-18 02:07:00,
2013-01-17 18:12:00,51.6,37.3,30.17,SW,228,0.0,0.0,58,0.00,,,0.00,WeatherCatV1.13B119,2013-01-18 02:12:00,
2013-01-17 18:17:00,51.6,36.9,30.17,South,186,1.0,2.0,57,0.00,,,0.00,WeatherCatV1.13B119,2013-01-18 02:17:00,
2013-01-17 18:22:00,51.4,37.1,30.17,East,89,0.0,1.0,58,0.00,,,0.00,WeatherCatV1.13B119,2013-01-18 02:22:00,
2013-01-17 18:27:00,51.3,37.0,30.17,West,267,0.0,1.0,58,0.00,,,0.00,WeatherCatV1.13B119,2013-01-18 02:27:00,
2013-01-17 18:32:00,51.2,36.5,30.17,WSW,240,1.0,1.0,57,0.00,,,0.00,WeatherCatV1.13B119,2013-01-18 02:32:00,
2013-01-17 18:37:00,51.2,36.5,30.17,WNW,286,1.0,2.0,57,0.00,,,0.00,WeatherCatV1.13B119,2013-01-18 02:37:00,
2013-01-17 18:42:00,51.1,36.4,30.17,WSW,252,0.0,0.0,57,0.00,,,0.00,WeatherCatV1.13B119,2013-01-18 02:42:00,
2013-01-17 18:47:00,50.9,36.7,30.17,West,262,0.0,0.0,58,0.00,,,0.00,WeatherCatV1.13B119,2013-01-18 02:47:00,
2013-01-17 18:52:00,50.8,36.6,30.17,SW,228,0.0,0.0,58,0.00,,,0.00,WeatherCatV1.13B119,2013-01-18 02:52:00,
2013-01-17 18:57:00,50.7,36.5,30.17,West,277,0.0,0.0,58,0.00,,,0.00,WeatherCatV1.13B119,2013-01-18 02:57:00,
2013-01-17 19:02:00,50.7,36.5,30.17,West,270,2.0,3.0,58,0.00,,,0.00,WeatherCatV1.13B119,2013-01-18 03:02:00,
2013-01-17 19:07:00,50.7,36.5,30.17,West,268,0.0,1.0,58,0.00,,,0.00,WeatherCatV1.13B119,2013-01-18 03:07:00,
2013-01-17 19:12:00,50.5,36.3,30.17,WSW,256,0.0,1.0,58,0.00,,,0.00,WeatherCatV1.13B119,2013-01-18 03:12:00,
2013-01-17 19:17:00,50.5,36.3,30.17,WNW,292,1.0,1.0,58,0.00,,,0.00,WeatherCatV1.13B119,2013-01-18 03:17:00,
2013-01-17 19:22:00,50.4,36.2,30.17,NNE,30,0.0,0.0,58,0.00,,,0.00,WeatherCatV1.13B119,2013-01-18 03:22:00,
2013-01-17 19:27:00,50.2,36.0,30.17,WSW,238,0.0,0.0,58,0.00,,,0.00,WeatherCatV1.13B119,2013-01-18 03:27:00,
2013-01-17 19:32:00,50.2,36.0,30.17,NE,42,0.0,0.0,58,0.00,,,0.00,WeatherCatV1.13B119,2013-01-18 03:32:00,
2013-01-17 19:37:00,50.2,36.0,30.17,WSW,250,0.0,2.0,58,0.00,,,0.00,WeatherCatV1.13B119,2013-01-18 03:37:00,
2013-01-17 19:42:00,50.2,36.0,30.17,West,274,0.0,1.0,58,0.00,,,0.00,WeatherCatV1.13B119,2013-01-18 03:42:00,
2013-01-17 19:47:00,50.1,36.3,30.17,SW,219,0.0,2.0,59,0.00,,,0.00,WeatherCatV1.13B119,2013-01-18 03:47:00,
2013-01-17 19:52:00,50.1,36.3,30.17,West,259,1.0,2.0,59,0.00,,,0.00,WeatherCatV1.13B119,2013-01-18 03:52:00,
2013-01-17 19:57:00,49.9,36.6,30.17,West,269,2.0,2.0,60,0.00,,,0.00,WeatherCatV1.13B119,2013-01-18 03:57:00,
2013-01-17 20:02:00,49.9,36.6,30.17,SW,218,0.0,0.0,60,0.00,,,0.00,WeatherCatV1.13B119,2013-01-18 04:02:00,
2013-01-17 20:07:00,49.8,36.5,30.17,South,184,0.0,1.0,60,0.00,,,0.00,WeatherCatV1.13B119,2013-01-18 04:07:00,
2013-01-17 20:12:00,49.8,36.5,30.17,SW,217,0.0,1.0,60,0.00,,,0.00,WeatherCatV1.13B119,2013-01-18 04:12:00,
2013-01-17 20:17:00,49.6,36.7,30.17,SSW,207,0.0,0.0,61,0.00,,,0.00,WeatherCatV1.13B119,2013-01-18 04:17:00,
2013-01-17 20:22:00,49.4,36.5,30.17,WSW,245,0.0,0.0,61,0.00,,,0.00,WeatherCatV1.13B119,2013-01-18 04:22:00,
2013-01-17 20:27:00,49.3,36.4,30.17,WNW,285,0.0,1.0,61,0.00,,,0.00,WeatherCatV1.13B119,2013-01-18 04:27:00,
2013-01-17 20:32:00,49.2,36.3,30.17,West,270,1.0,1.0,61,0.00,,,0.00,WeatherCatV1.13B119,2013-01-18 04:32:00,
2013-01-17 20:38:00,49.2,36.3,30.17,WNW,284,0.0,0.0,61,0.00,,,0.00,WeatherCatV1.13B119,2013-01-18 04:38:00,
2013-01-17 20:43:00,49.2,36.3,30.17,WSW,254,0.0,0.0,61,0.00,,,0.00,WeatherCatV1.13B119,2013-01-18 04:43:00,
2013-01-17 20:48:00,49.1,36.2,30.17,WSW,248,0.0,0.0,61,0.00,,,0.00,WeatherCatV1.13B119,2013-01-18 04:48:00,
2013-01-17 20:53:00,49.0,36.1,30.17,West,271,0.0,0.0,61,0.00,,,0.00,WeatherCatV1.13B119,2013-01-18 04:53:00,
2013-01-17 20:58:00,49.0,36.1,30.17,WSW,253,1.0,1.0,61,0.00,,,0.00,WeatherCatV1.13B119,2013-01-18 04:58:00,
2013-01-17 21:00:00,49.0,36.1,30.17,SW,231,1.0,2.0,61,0.00,,,0.00,WeatherCatV1.13B119,2013-01-18 05:00:00,
2013-01-17 21:01:00,49.1,36.2,30.17,SW,232,1.0,2.0,61,0.00,,,0.00,WeatherCatV1.13B119,2013-01-18 05:01:00,
2013-01-17 21:02:00,49.0,36.1,30.17,SW,233,1.0,1.0,61,0.00,,,0.00,WeatherCatV1.13B119,2013-01-18 05:02:00,
2013-01-17 21:07:00,48.9,36.0,30.17,West,262,0.0,1.0,61,0.00,,,0.00,WeatherCatV1.13B119,2013-01-18 05:07:00,
2013-01-17 21:12:00,48.8,36.4,30.17,WSW,257,0.0,0.0,62,0.00,,,0.00,WeatherCatV1.13B119,2013-01-18 05:12:00,
2013-01-17 21:17:00,48.7,36.3,30.17,WSW,256,0.0,0.0,62,0.00,,,0.00,WeatherCatV1.13B119,2013-01-18 05:17:00,
2013-01-17 21:22:00,48.6,35.8,30.17,WSW,249,0.0,0.0,61,0.00,,,0.00,WeatherCatV1.13B119,2013-01-18 05:22:00,
2013-01-17 21:27:00,48.4,36.0,30.17,WSW,243,0.0,1.0,62,0.00,,,0.00,WeatherCatV1.13B119,2013-01-18 05:27:00,
2013-01-17 21:32:00,48.3,35.9,30.18,WSW,246,0.0,1.0,62,0.00,,,0.00,WeatherCatV1.13B119,2013-01-18 05:32:00,
2013-01-17 21:37:00,48.2,35.8,30.18,West,259,0.0,0.0,62,0.00,,,0.00,WeatherCatV1.13B119,2013-01-18 05:37:00,
2013-01-17 21:42:00,48.1,35.7,30.18,NNW,330,0.0,0.0,62,0.00,,,0.00,WeatherCatV1.13B119,2013-01-18 05:42:00,
2013-01-17 21:47:00,48.1,35.7,30.18,WSW,253,0.0,0.0,62,0.00,,,0.00,WeatherCatV1.13B119,2013-01-18 05:47:00,
2013-01-17 21:52:00,48.1,35.7,30.18,WNW,297,0.0,0.0,62,0.00,,,0.00,WeatherCatV1.13B119,2013-01-18 05:52:00,
2013-01-17 21:57:00,48.0,35.6,30.18,WSW,256,1.0,1.0,62,0.00,,,0.00,WeatherCatV1.13B119,2013-01-18 05:57:00,
2013-01-17 22:02:00,47.9,35.9,30.18,WSW,257,0.0,0.0,63,0.00,,,0.00,WeatherCatV1.13B119,2013-01-18 06:02:00,
2013-01-17 22:07:00,47.7,36.1,30.17,WSW,256,0.0,0.0,64,0.00,,,0.00,WeatherCatV1.13B119,2013-01-18 06:07:00,
2013-01-17 22:14:00,47.6,36.0,30.17,SW,226,1.0,1.0,64,0.00,,,0.00,WeatherCatV1.13B119,2013-01-18 06:14:00,
2013-01-17 22:19:00,47.5,36.3,30.18,WSW,255,0.0,0.0,65,0.00,,,0.00,WeatherCatV1.13B119,2013-01-18 06:19:00,
2013-01-17 22:24:00,47.5,36.3,30.17,NW,311,0.0,1.0,65,0.00,,,0.00,WeatherCatV1.13B119,2013-01-18 06:24:00,
2013-01-17 22:29:00,47.5,36.3,30.17,WSW,255,0.0,0.0,65,0.00,,,0.00,WeatherCatV1.13B119,2013-01-18 06:29:00,
2013-01-17 22:34:00,47.4,36.6,30.17,WSW,256,0.0,1.0,66,0.00,,,0.00,WeatherCatV1.13B119,2013-01-18 06:34:00,
2013-01-17 22:39:00,47.3,36.5,30.18,SW,226,1.0,2.0,66,0.00,,,0.00,WeatherCatV1.13B119,2013-01-18 06:39:00,
2013-01-17 22:44:00,47.2,36.8,30.18,ENE,64,0.0,0.0,67,0.00,,,0.00,WeatherCatV1.13B119,2013-01-18 06:44:00,
2013-01-17 22:49:00,47.1,36.7,30.18,WNW,283,1.0,2.0,67,0.00,,,0.00,WeatherCatV1.13B119,2013-01-18 06:49:00,
2013-01-17 22:54:00,47.0,36.6,30.18,ESE,104,0.0,1.0,67,0.00,,,0.00,WeatherCatV1.13B119,2013-01-18 06:54:00,
2013-01-17 22:59:00,47.0,36.6,30.18,WSW,240,0.0,1.0,67,0.00,,,0.00,WeatherCatV1.13B119,2013-01-18 06:59:00,
2013-01-17 23:04:00,46.9,36.5,30.18,SW,231,0.0,0.0,67,0.00,,,0.00,WeatherCatV1.13B119,2013-01-18 07:04:00,
2013-01-17 23:09:00,46.9,36.5,30.18,West,275,0.0,0.0,67,0.00,,,0.00,WeatherCatV1.13B119,2013-01-18 07:09:00,
2013-01-17 23:14:00,47.0,36.6,30.18,WSW,249,0.0,1.0,67,0.00,,,0.00,WeatherCatV1.13B119,2013-01-18 07:14:00,
2013-01-17 23:19:00,47.0,36.6,30.18,SW,236,1.0,3.0,67,0.00,,,0.00,WeatherCatV1.13B119,2013-01-18 07:19:00,
2013-01-17 23:24:00,47.0,36.6,30.18,WSW,249,1.0,1.0,67,0.00,,,0.00,WeatherCatV1.13B119,2013-01-18 07:24:00,
2013-01-17 23:29:00,47.0,36.6,30.18,SW,228,0.0,2.0,67,0.00,,,0.00,WeatherCatV1.13B119,2013-01-18 07:29:00,
2013-01-17 23:34:00,46.8,36.8,30.18,West,268,0.0,1.0,68,0.00,,,0.00,WeatherCatV1.13B119,2013-01-18 07:34:00,
2013-01-17 23:39:00,46.8,37.2,30.18,SW,221,0.0,1.0,69,0.00,,,0.00,WeatherCatV1.13B119,2013-01-18 07:39:00,
2013-01-17 23:44:00,46.7,37.1,30.18,NW,321,0.0,0.0,69,0.00,,,0.00,WeatherCatV1.13B119,2013-01-18 07:44:00,
2013-01-17 23:49:00,46.7,37.1,30.19,WNW,297,0.0,1.0,69,0.00,,,0.00,WeatherCatV1.13B119,2013-01-18 07:49:00,
2013-01-17 23:54:00,46.6,37.3,30.19,WNW,287,0.0,0.0,70,0.00,,,0.00,WeatherCatV1.13B119,2013-01-18 07:54:00,
2013-01-17 23:59:00,46.6,37.3,30.19,West,281,0.0,0.0,70,0.00,,,0.00,WeatherCatV1.13B119,2013-01-18 07:59:00,